,,PA_Meas_PMT16A,,PR_Meas_QMR101_102,,RH_Meas_QMH101,,SR_Meas_QMS101,,TA_Meas_QMH101,,GenWind,,GenWind,
time,status,PA,status,PR,status,RH,status,SR,status,TA,status,DirAvg,status,SpdAvg,
2014-09-01, 00:00:04,VALID,916.824,VALID,0,VALID,96.8707,VALID,0,VALID,20.873,VALID,170,VALID,0,
2014-09-01, 00:01:04,VALID,916.834,VALID,0,VALID,96.886,VALID,0.107441,VALID,20.8519,VALID,64,VALID,0,
2014-09-01, 00:02:04,VALID,916.845,VALID,0,VALID,96.9012,VALID,0,VALID,20.873,VALID,64,VALID,0,
2014-09-01, 00:03:04,VALID,916.822,VALID,0,VALID,96.8784,VALID,0.107441,VALID,20.873,VALID,64,VALID,0,
2014-09-01, 00:04:04,VALID,916.836,VALID,0,VALID,96.8707,VALID,0,VALID,20.8519,VALID,64,VALID,0,
2014-09-01, 00:05:04,VALID,916.821,VALID,0,VALID,96.886,VALID,0,VALID,20.8535,VALID,64,VALID,0,
2014-09-01, 00:06:04,VALID,916.796,VALID,0,VALID,96.886,VALID,0,VALID,20.8129,VALID,64,VALID,0,
2014-09-01, 00:07:04,VALID,916.846,VALID,0,VALID,96.9165,VALID,0,VALID,20.834,VALID,64,VALID,0,
2014-09-01, 00:08:04,VALID,916.849,VALID,0,VALID,96.9012,VALID,0.107441,VALID,20.8519,VALID,64,VALID,0,
2014-09-01, 00:09:04,VALID,916.833,VALID,0,VALID,96.9165,VALID,0,VALID,20.8519,VALID,64,VALID,0,
2014-09-01, 00:10:04,VALID,916.81,VALID,0,VALID,96.9089,VALID,0,VALID,20.8324,VALID,64,VALID,0,
2014-09-01, 00:11:04,VALID,916.818,VALID,0,VALID,96.9241,VALID,0,VALID,20.8535,VALID,45,VALID,0,
2014-09-01, 00:12:04,VALID,916.808,VALID,0,VALID,96.9241,VALID,0,VALID,20.7918,VALID,45,VALID,0,
2014-09-01, 00:13:04,VALID,916.824,VALID,0,VALID,96.9241,VALID,0.107441,VALID,20.8145,VALID,46,VALID,0,
2014-09-01, 00:14:04,VALID,916.823,VALID,0,VALID,96.947,VALID,0.107441,VALID,20.7918,VALID,45,VALID,0,
2014-09-01, 00:15:04,VALID,916.861,VALID,0,VALID,96.947,VALID,0,VALID,20.8551,VALID,46,VALID,0,
2014-09-01, 00:16:04,VALID,916.835,VALID,0,VALID,96.9622,VALID,0,VALID,20.7708,VALID,46,VALID,0,
2014-09-01, 00:17:04,VALID,916.829,VALID,0,VALID,96.9546,VALID,0,VALID,20.7723,VALID,47,VALID,0,
2014-09-01, 00:18:04,VALID,916.846,VALID,0,VALID,96.9622,VALID,0,VALID,20.7918,VALID,49,VALID,0,
2014-09-01, 00:19:04,VALID,916.844,VALID,0,VALID,96.9698,VALID,0.107441,VALID,20.8145,VALID,45,VALID,1.30625,
2014-09-01, 00:20:04,VALID,916.889,VALID,0,VALID,96.9851,VALID,0.107441,VALID,20.7739,VALID,37,VALID,1.34922,
2014-09-01, 00:21:04,VALID,916.915,VALID,0,VALID,96.9851,VALID,0,VALID,20.795,VALID,34,VALID,0.00195313,
2014-09-01, 00:22:04,VALID,916.912,VALID,0,VALID,96.9927,VALID,0,VALID,20.7723,VALID,34,VALID,0,
2014-09-01, 00:23:04,VALID,916.905,VALID,0,VALID,96.9927,VALID,0,VALID,20.7755,VALID,34,VALID,0,
2014-09-01, 00:24:04,VALID,916.945,VALID,0,VALID,97.008,VALID,0.107441,VALID,20.7755,VALID,45,VALID,0,
2014-09-01, 00:25:04,VALID,916.95,VALID,0,VALID,96.9927,VALID,0,VALID,20.7349,VALID,34,VALID,0,
2014-09-01, 00:26:04,VALID,916.968,VALID,0,VALID,97.0156,VALID,0.107441,VALID,20.7576,VALID,37,VALID,0,
2014-09-01, 00:27:04,VALID,916.971,VALID,0,VALID,97.0003,VALID,0,VALID,20.7381,VALID,54,VALID,0.289844,
2014-09-01, 00:28:04,VALID,916.936,VALID,0,VALID,97.008,VALID,0,VALID,20.6975,VALID,44,VALID,0,
2014-09-01, 00:29:04,VALID,916.932,VALID,0,VALID,97.008,VALID,0,VALID,20.6959,VALID,34,VALID,0,
2014-09-01, 00:30:04,VALID,916.928,VALID,0,VALID,96.9927,VALID,0,VALID,20.717,VALID,34,VALID,0,
2014-09-01, 00:31:04,VALID,916.928,VALID,0,VALID,97.0385,VALID,0,VALID,20.6959,VALID,33,VALID,0,
2014-09-01, 00:32:04,VALID,916.895,VALID,0,VALID,97.0156,VALID,0,VALID,20.7381,VALID,33,VALID,0,
2014-09-01, 00:33:04,VALID,916.891,VALID,0,VALID,97.0232,VALID,0,VALID,20.6959,VALID,33,VALID,0,
2014-09-01, 00:34:04,VALID,916.884,VALID,0,VALID,97.0385,VALID,0,VALID,20.6959,VALID,33,VALID,0,
2014-09-01, 00:35:04,VALID,916.853,VALID,0,VALID,97.0308,VALID,0,VALID,20.6748,VALID,33,VALID,0,
2014-09-01, 00:36:04,VALID,916.827,VALID,0,VALID,97.0385,VALID,0,VALID,20.717,VALID,33,VALID,0,
2014-09-01, 00:37:04,VALID,916.859,VALID,0,VALID,97.0232,VALID,0,VALID,20.7381,VALID,33,VALID,0,
2014-09-01, 00:38:04,VALID,916.839,VALID,0,VALID,97.0308,VALID,0,VALID,20.6975,VALID,33,VALID,0,
2014-09-01, 00:39:04,VALID,916.886,VALID,0,VALID,97.0308,VALID,0,VALID,20.6975,VALID,33,VALID,0,
2014-09-01, 00:40:04,VALID,916.86,VALID,0,VALID,97.0537,VALID,0,VALID,20.678,VALID,33,VALID,0,
2014-09-01, 00:41:04,VALID,916.862,VALID,0,VALID,97.0461,VALID,0,VALID,20.6585,VALID,34,VALID,0,
2014-09-01, 00:42:04,VALID,916.88,VALID,0,VALID,97.0461,VALID,0,VALID,20.6194,VALID,34,VALID,0,
2014-09-01, 00:43:04,VALID,916.859,VALID,0,VALID,97.0613,VALID,0,VALID,20.621,VALID,34,VALID,0,
2014-09-01, 00:44:04,VALID,916.838,VALID,0,VALID,97.069,VALID,0,VALID,20.6194,VALID,34,VALID,0,
2014-09-01, 00:45:04,VALID,916.843,VALID,0,VALID,97.069,VALID,0,VALID,20.6405,VALID,34,VALID,0,
2014-09-01, 00:46:04,VALID,916.854,VALID,0,VALID,97.0461,VALID,0,VALID,20.6405,VALID,34,VALID,0,
2014-09-01, 00:47:04,VALID,916.839,VALID,0,VALID,97.069,VALID,0,VALID,20.6194,VALID,34,VALID,0,
2014-09-01, 00:48:04,VALID,916.834,VALID,0,VALID,97.069,VALID,0,VALID,20.5999,VALID,34,VALID,0,
2014-09-01, 00:49:04,VALID,916.86,VALID,0,VALID,97.0461,VALID,0,VALID,20.5804,VALID,34,VALID,0,
2014-09-01, 00:50:04,VALID,916.818,VALID,0,VALID,97.0461,VALID,0,VALID,20.5804,VALID,34,VALID,0,
2014-09-01, 00:51:04,VALID,916.827,VALID,0,VALID,97.069,VALID,0,VALID,20.5609,VALID,34,VALID,0,
2014-09-01, 00:52:04,VALID,916.837,VALID,0,VALID,97.0613,VALID,0,VALID,20.5625,VALID,34,VALID,0,
2014-09-01, 00:53:04,VALID,916.819,VALID,0,VALID,97.0537,VALID,0,VALID,20.582,VALID,34,VALID,0,
2014-09-01, 00:54:04,VALID,916.79,VALID,0,VALID,97.0766,VALID,0,VALID,20.5999,VALID,33,VALID,0,
2014-09-01, 00:55:04,VALID,916.816,VALID,0,VALID,97.0613,VALID,0,VALID,20.6194,VALID,33,VALID,0,
2014-09-01, 00:56:04,VALID,916.803,VALID,0,VALID,97.0461,VALID,0,VALID,20.639,VALID,34,VALID,0,
2014-09-01, 00:57:04,VALID,916.823,VALID,0,VALID,97.0537,VALID,0,VALID,20.6179,VALID,33,VALID,0,
2014-09-01, 00:58:04,VALID,916.789,VALID,0,VALID,97.0613,VALID,0,VALID,20.639,VALID,33,VALID,0,
2014-09-01, 00:59:04,VALID,916.805,VALID,0,VALID,97.0613,VALID,0,VALID,20.6585,VALID,34,VALID,0,
2014-09-01, 01:00:04,VALID,916.768,VALID,0,VALID,97.0842,VALID,0,VALID,20.6585,VALID,33,VALID,0,
2014-09-01, 01:01:04,VALID,916.78,VALID,0,VALID,97.069,VALID,0,VALID,20.678,VALID,33,VALID,0,
2014-09-01, 01:02:04,VALID,916.775,VALID,0,VALID,97.0537,VALID,0,VALID,20.678,VALID,33,VALID,0,
2014-09-01, 01:03:04,VALID,916.763,VALID,0,VALID,97.0537,VALID,0,VALID,20.6585,VALID,33,VALID,0,
2014-09-01, 01:04:04,VALID,916.775,VALID,0,VALID,97.069,VALID,0,VALID,20.6569,VALID,33,VALID,0,
2014-09-01, 01:05:04,VALID,916.752,VALID,0,VALID,97.0613,VALID,0,VALID,20.7201,VALID,33,VALID,0,
2014-09-01, 01:06:04,VALID,916.771,VALID,0,VALID,97.0918,VALID,0,VALID,20.6569,VALID,33,VALID,0,
2014-09-01, 01:07:04,VALID,916.789,VALID,0,VALID,97.069,VALID,0,VALID,20.6975,VALID,33,VALID,0,
2014-09-01, 01:08:04,VALID,916.8,VALID,0,VALID,97.0842,VALID,0,VALID,20.6959,VALID,33,VALID,0,
2014-09-01, 01:09:04,VALID,916.798,VALID,0,VALID,97.069,VALID,0,VALID,20.7365,VALID,33,VALID,0,
2014-09-01, 01:10:04,VALID,916.814,VALID,0,VALID,97.069,VALID,0,VALID,20.7365,VALID,33,VALID,0,
2014-09-01, 01:11:04,VALID,916.789,VALID,0,VALID,97.069,VALID,0,VALID,20.7381,VALID,33,VALID,0,
2014-09-01, 01:12:04,VALID,916.81,VALID,0,VALID,97.0766,VALID,0,VALID,20.7576,VALID,33,VALID,0,
2014-09-01, 01:13:04,VALID,916.824,VALID,0,VALID,97.069,VALID,0,VALID,20.717,VALID,33,VALID,0,
2014-09-01, 01:14:04,VALID,916.873,VALID,0,VALID,97.0766,VALID,0,VALID,20.7381,VALID,33,VALID,0,
2014-09-01, 01:15:04,VALID,916.851,VALID,0,VALID,97.069,VALID,0,VALID,20.717,VALID,33,VALID,0,
2014-09-01, 01:16:04,VALID,916.886,VALID,0,VALID,97.0766,VALID,0,VALID,20.717,VALID,33,VALID,0,
2014-09-01, 01:17:04,VALID,916.877,VALID,0,VALID,97.0766,VALID,0,VALID,20.717,VALID,33,VALID,0,
2014-09-01, 01:18:04,VALID,916.886,VALID,0,VALID,97.0918,VALID,0,VALID,20.7365,VALID,33,VALID,0,
2014-09-01, 01:19:04,VALID,916.886,VALID,0,VALID,97.069,VALID,0,VALID,20.7365,VALID,33,VALID,0,
2014-09-01, 01:20:04,VALID,916.902,VALID,0,VALID,97.069,VALID,0,VALID,20.7365,VALID,33,VALID,0,
2014-09-01, 01:21:04,VALID,916.878,VALID,0,VALID,97.069,VALID,0,VALID,20.7755,VALID,33,VALID,0,
2014-09-01, 01:22:04,VALID,916.871,VALID,0,VALID,97.0842,VALID,0,VALID,20.795,VALID,33,VALID,0,
2014-09-01, 01:23:04,VALID,916.885,VALID,0,VALID,97.0842,VALID,0,VALID,20.8145,VALID,33,VALID,0,
2014-09-01, 01:24:04,VALID,916.883,VALID,0,VALID,97.069,VALID,0,VALID,20.795,VALID,33,VALID,0,
2014-09-01, 01:25:04,VALID,916.852,VALID,0,VALID,97.1071,VALID,0,VALID,20.8145,VALID,33,VALID,0,
2014-09-01, 01:26:04,VALID,916.846,VALID,0,VALID,97.0994,VALID,0,VALID,20.834,VALID,33,VALID,0,
2014-09-01, 01:27:04,VALID,916.84,VALID,0,VALID,97.0842,VALID,0,VALID,20.8535,VALID,33,VALID,0,
2014-09-01, 01:28:04,VALID,916.825,VALID,0,VALID,97.0766,VALID,0,VALID,20.873,VALID,33,VALID,0,
2014-09-01, 01:29:04,VALID,916.825,VALID,0,VALID,97.0842,VALID,0,VALID,20.8714,VALID,33,VALID,0,
2014-09-01, 01:30:04,VALID,916.818,VALID,0,VALID,97.0842,VALID,0,VALID,20.8925,VALID,33,VALID,0,
2014-09-01, 01:31:04,VALID,916.838,VALID,0,VALID,97.0842,VALID,0,VALID,20.834,VALID,33,VALID,0,
2014-09-01, 01:32:04,VALID,916.782,VALID,0,VALID,97.0842,VALID,0,VALID,20.834,VALID,33,VALID,0,
2014-09-01, 01:33:05,VALID,916.788,VALID,0,VALID,97.0766,VALID,0,VALID,20.7934,VALID,33,VALID,0,
2014-09-01, 01:34:05,VALID,916.761,VALID,0,VALID,97.0994,VALID,0,VALID,20.795,VALID,33,VALID,0,
2014-09-01, 01:35:05,VALID,916.768,VALID,0,VALID,97.0842,VALID,0,VALID,20.7755,VALID,33,VALID,0,
2014-09-01, 01:36:05,VALID,916.753,VALID,0,VALID,97.069,VALID,0,VALID,20.7739,VALID,33,VALID,0,
2014-09-01, 01:37:05,VALID,916.714,VALID,0,VALID,97.0766,VALID,0,VALID,20.795,VALID,33,VALID,0,
2014-09-01, 01:38:05,VALID,916.737,VALID,0,VALID,97.069,VALID,0,VALID,20.795,VALID,33,VALID,0,
2014-09-01, 01:39:05,VALID,916.72,VALID,0,VALID,97.0842,VALID,0,VALID,20.8145,VALID,33,VALID,0,
2014-09-01, 01:40:05,VALID,916.717,VALID,0,VALID,97.069,VALID,0,VALID,20.834,VALID,33,VALID,0,
2014-09-01, 01:41:05,VALID,916.712,VALID,0,VALID,97.0613,VALID,0,VALID,20.834,VALID,33,VALID,0,
2014-09-01, 01:42:05,VALID,916.711,VALID,0,VALID,97.0766,VALID,0,VALID,20.8129,VALID,33,VALID,0,
2014-09-01, 01:43:05,VALID,916.682,VALID,0,VALID,97.0537,VALID,0,VALID,20.8145,VALID,33,VALID,0,
2014-09-01, 01:44:05,VALID,916.706,VALID,0,VALID,97.0918,VALID,0,VALID,20.795,VALID,33,VALID,0,
2014-09-01, 01:45:05,VALID,916.682,VALID,0,VALID,97.0842,VALID,0,VALID,20.7755,VALID,34,VALID,0,
2014-09-01, 01:46:05,VALID,916.661,VALID,0,VALID,97.0766,VALID,0,VALID,20.7544,VALID,33,VALID,0,
2014-09-01, 01:47:05,VALID,916.664,VALID,0,VALID,97.0918,VALID,0,VALID,20.756,VALID,33,VALID,0,
2014-09-01, 01:48:05,VALID,916.667,VALID,0,VALID,97.0842,VALID,0,VALID,20.7365,VALID,33,VALID,0,
2014-09-01, 01:49:05,VALID,916.658,VALID,0,VALID,97.0766,VALID,0,VALID,20.7365,VALID,33,VALID,0,
2014-09-01, 01:50:05,VALID,916.677,VALID,0,VALID,97.069,VALID,0,VALID,20.7349,VALID,33,VALID,0,
2014-09-01, 01:51:05,VALID,916.693,VALID,0,VALID,97.0994,VALID,0,VALID,20.756,VALID,33,VALID,0,
2014-09-01, 01:52:05,VALID,916.702,VALID,0,VALID,97.0918,VALID,0,VALID,20.7365,VALID,34,VALID,0,
2014-09-01, 01:53:05,VALID,916.676,VALID,0,VALID,97.1071,VALID,0,VALID,20.7365,VALID,34,VALID,0,
2014-09-01, 01:54:05,VALID,916.684,VALID,0,VALID,97.0994,VALID,0,VALID,20.7154,VALID,34,VALID,0,
2014-09-01, 01:55:05,VALID,916.705,VALID,0,VALID,97.0842,VALID,0,VALID,20.7154,VALID,34,VALID,0,
2014-09-01, 01:56:05,VALID,916.66,VALID,0,VALID,97.1147,VALID,0.107441,VALID,20.7365,VALID,34,VALID,0,
2014-09-01, 01:57:05,VALID,916.66,VALID,0,VALID,97.0918,VALID,0,VALID,20.7154,VALID,34,VALID,0,
2014-09-01, 01:58:05,VALID,916.641,VALID,0,VALID,97.0918,VALID,0,VALID,20.7349,VALID,34,VALID,0,
2014-09-01, 01:59:05,VALID,916.661,VALID,0,VALID,97.0766,VALID,0.107441,VALID,20.7544,VALID,34,VALID,0,
2014-09-01, 02:00:05,VALID,916.644,VALID,0,VALID,97.069,VALID,0,VALID,20.7544,VALID,34,VALID,0,
2014-09-01, 02:01:05,VALID,916.63,VALID,0,VALID,97.1071,VALID,0,VALID,20.7739,VALID,34,VALID,0,
2014-09-01, 02:02:05,VALID,916.654,VALID,0,VALID,97.0918,VALID,0,VALID,20.7739,VALID,34,VALID,0,
2014-09-01, 02:03:05,VALID,916.625,VALID,0,VALID,97.0918,VALID,0,VALID,20.7755,VALID,34,VALID,0,
2014-09-01, 02:04:05,VALID,916.631,VALID,0,VALID,97.0766,VALID,0,VALID,20.7755,VALID,34,VALID,0,
2014-09-01, 02:05:05,VALID,916.618,VALID,0,VALID,97.0842,VALID,0.107441,VALID,20.795,VALID,34,VALID,0,
2014-09-01, 02:06:05,VALID,916.63,VALID,0,VALID,97.0766,VALID,0,VALID,20.795,VALID,34,VALID,0,
2014-09-01, 02:07:05,VALID,916.622,VALID,0,VALID,97.0537,VALID,0,VALID,20.7739,VALID,34,VALID,0,
2014-09-01, 02:08:05,VALID,916.609,VALID,0,VALID,97.0842,VALID,0.107441,VALID,20.7739,VALID,34,VALID,0,
2014-09-01, 02:09:05,VALID,916.603,VALID,0,VALID,97.0766,VALID,0,VALID,20.7544,VALID,34,VALID,0,
2014-09-01, 02:10:05,VALID,916.66,VALID,0,VALID,97.0766,VALID,0,VALID,20.7755,VALID,108,VALID,0,
2014-09-01, 02:11:05,VALID,916.656,VALID,0,VALID,97.0842,VALID,0,VALID,20.7154,VALID,130,VALID,0,
2014-09-01, 02:12:05,VALID,916.653,VALID,0,VALID,97.069,VALID,0,VALID,20.717,VALID,130,VALID,0,
2014-09-01, 02:13:05,VALID,916.685,VALID,0,VALID,97.069,VALID,0,VALID,20.717,VALID,130,VALID,0,
2014-09-01, 02:14:05,VALID,916.665,VALID,0,VALID,97.0537,VALID,0,VALID,20.717,VALID,130,VALID,0,
2014-09-01, 02:15:05,VALID,916.674,VALID,0,VALID,97.0766,VALID,0,VALID,20.6975,VALID,130,VALID,0,
2014-09-01, 02:16:05,VALID,916.676,VALID,0,VALID,97.0613,VALID,0,VALID,20.6975,VALID,130,VALID,0,
2014-09-01, 02:17:05,VALID,916.648,VALID,0,VALID,97.0766,VALID,0,VALID,20.678,VALID,130,VALID,0,
2014-09-01, 02:18:05,VALID,916.627,VALID,0,VALID,97.0461,VALID,0,VALID,20.6569,VALID,130,VALID,0,
2014-09-01, 02:19:05,VALID,916.646,VALID,0,VALID,97.0766,VALID,0,VALID,20.678,VALID,130,VALID,0,
2014-09-01, 02:20:05,VALID,916.625,VALID,0,VALID,97.069,VALID,0,VALID,20.678,VALID,130,VALID,0,
2014-09-01, 02:21:05,VALID,916.631,VALID,0,VALID,97.0766,VALID,0,VALID,20.6569,VALID,130,VALID,0,
2014-09-01, 02:22:05,VALID,916.642,VALID,0,VALID,97.0613,VALID,0,VALID,20.6764,VALID,130,VALID,0,
2014-09-01, 02:23:05,VALID,916.617,VALID,0,VALID,97.0385,VALID,0,VALID,20.6569,VALID,130,VALID,0,
2014-09-01, 02:24:05,VALID,916.649,VALID,0,VALID,97.0461,VALID,0,VALID,20.6585,VALID,130,VALID,0,
2014-09-01, 02:25:05,VALID,916.66,VALID,0,VALID,97.0385,VALID,0,VALID,20.6194,VALID,130,VALID,0,
2014-09-01, 02:26:05,VALID,916.669,VALID,0,VALID,97.0385,VALID,0,VALID,20.5984,VALID,130,VALID,0,
2014-09-01, 02:27:05,VALID,916.672,VALID,0,VALID,97.0613,VALID,0,VALID,20.6194,VALID,130,VALID,0,
2014-09-01, 02:28:05,VALID,916.648,VALID,0,VALID,97.0461,VALID,0,VALID,20.5999,VALID,130,VALID,0,
2014-09-01, 02:29:05,VALID,916.659,VALID,0,VALID,97.0385,VALID,0.107441,VALID,20.5804,VALID,130,VALID,0,
2014-09-01, 02:30:05,VALID,916.66,VALID,0,VALID,97.0537,VALID,0.107441,VALID,20.5999,VALID,130,VALID,0,
2014-09-01, 02:31:05,VALID,916.635,VALID,0,VALID,97.0308,VALID,0,VALID,20.5609,VALID,130,VALID,0,
2014-09-01, 02:32:05,VALID,916.666,VALID,0,VALID,97.0232,VALID,0,VALID,20.5609,VALID,130,VALID,0,
2014-09-01, 02:33:05,VALID,916.665,VALID,0,VALID,97.0308,VALID,0,VALID,20.5414,VALID,129,VALID,0,
2014-09-01, 02:34:05,VALID,916.668,VALID,0,VALID,97.0461,VALID,0,VALID,20.5414,VALID,129,VALID,0,
2014-09-01, 02:35:05,VALID,916.65,VALID,0,VALID,97.0461,VALID,0,VALID,20.5414,VALID,129,VALID,0,
2014-09-01, 02:36:05,VALID,916.641,VALID,0,VALID,97.0613,VALID,0,VALID,20.5414,VALID,129,VALID,0,
2014-09-01, 02:37:05,VALID,916.631,VALID,0,VALID,97.0461,VALID,0,VALID,20.5414,VALID,129,VALID,0,
2014-09-01, 02:38:05,VALID,916.632,VALID,0,VALID,97.0537,VALID,0,VALID,20.5414,VALID,129,VALID,0,
2014-09-01, 02:39:05,VALID,916.589,VALID,0,VALID,97.069,VALID,0,VALID,20.5414,VALID,129,VALID,0,
2014-09-01, 02:40:05,VALID,916.568,VALID,0,VALID,97.069,VALID,0.107441,VALID,20.5399,VALID,129,VALID,0,
2014-09-01, 02:41:05,VALID,916.573,VALID,0,VALID,97.069,VALID,0,VALID,20.5414,VALID,129,VALID,0,
2014-09-01, 02:42:05,VALID,916.547,VALID,0,VALID,97.0613,VALID,0,VALID,20.5414,VALID,129,VALID,0,
2014-09-01, 02:43:05,VALID,916.567,VALID,0,VALID,97.0537,VALID,0,VALID,20.5414,VALID,129,VALID,0,
2014-09-01, 02:44:05,VALID,916.54,VALID,0,VALID,97.0766,VALID,0.107441,VALID,20.5414,VALID,129,VALID,0,
2014-09-01, 02:45:05,VALID,916.512,VALID,0,VALID,97.0766,VALID,0,VALID,20.5414,VALID,129,VALID,0,
2014-09-01, 02:46:05,VALID,916.487,VALID,0,VALID,97.0613,VALID,0,VALID,20.5414,VALID,133,VALID,0,
2014-09-01, 02:47:05,VALID,916.496,VALID,0,VALID,97.0842,VALID,0,VALID,20.5414,VALID,133,VALID,0,
2014-09-01, 02:48:05,VALID,916.482,VALID,0,VALID,97.0918,VALID,0,VALID,20.5219,VALID,133,VALID,0,
2014-09-01, 02:49:05,VALID,916.485,VALID,0,VALID,97.0842,VALID,0,VALID,20.5219,VALID,133,VALID,0,
2014-09-01, 02:50:05,VALID,916.458,VALID,0,VALID,97.0994,VALID,0,VALID,20.5219,VALID,131,VALID,0,
2014-09-01, 02:51:05,VALID,916.467,VALID,0,VALID,97.0994,VALID,0,VALID,20.5414,VALID,133,VALID,0,
2014-09-01, 02:52:05,VALID,916.436,VALID,0,VALID,97.0994,VALID,0,VALID,20.5414,VALID,120,VALID,0,
2014-09-01, 02:53:05,VALID,916.438,VALID,0,VALID,97.0918,VALID,0,VALID,20.5414,VALID,133,VALID,0,
2014-09-01, 02:54:05,VALID,916.413,VALID,0,VALID,97.1071,VALID,0,VALID,20.5219,VALID,129,VALID,0,
2014-09-01, 02:55:05,VALID,916.39,VALID,0,VALID,97.0994,VALID,0,VALID,20.5414,VALID,106,VALID,0,
2014-09-01, 02:56:05,VALID,916.355,VALID,0,VALID,97.1071,VALID,0,VALID,20.5414,VALID,115,VALID,0,
2014-09-01, 02:57:05,VALID,916.339,VALID,0,VALID,97.1147,VALID,0.107441,VALID,20.5219,VALID,126,VALID,0,
2014-09-01, 02:58:05,VALID,916.335,VALID,0,VALID,97.1071,VALID,0,VALID,20.5219,VALID,138,VALID,0,
2014-09-01, 02:59:05,VALID,916.306,VALID,0,VALID,97.1147,VALID,0,VALID,20.5219,VALID,116,VALID,0,
2014-09-01, 03:00:05,VALID,916.287,VALID,0,VALID,97.1299,VALID,0,VALID,20.5024,VALID,134,VALID,0,
2014-09-01, 03:01:05,VALID,916.305,VALID,0,VALID,97.1071,VALID,0,VALID,20.5024,VALID,134,VALID,0,
2014-09-01, 03:02:05,VALID,916.271,VALID,0,VALID,97.1376,VALID,0,VALID,20.5024,VALID,130,VALID,0.00117188,
2014-09-01, 03:03:05,VALID,916.255,VALID,0,VALID,97.1147,VALID,0,VALID,20.5024,VALID,137,VALID,0,
2014-09-01, 03:04:05,VALID,916.216,VALID,0,VALID,97.1299,VALID,0,VALID,20.5024,VALID,126,VALID,0,
2014-09-01, 03:05:05,VALID,916.203,VALID,0,VALID,97.1299,VALID,0,VALID,20.4829,VALID,146,VALID,0.375781,
2014-09-01, 03:06:05,VALID,916.173,VALID,0,VALID,97.1376,VALID,0.107441,VALID,20.4829,VALID,144,VALID,0.0078125,
2014-09-01, 03:07:05,VALID,916.165,VALID,0,VALID,97.1376,VALID,0,VALID,20.4813,VALID,144,VALID,0.216016,
2014-09-01, 03:08:05,VALID,916.173,VALID,0,VALID,97.1223,VALID,0,VALID,20.4829,VALID,140,VALID,0.35625,
2014-09-01, 03:09:05,VALID,916.13,VALID,0,VALID,97.1223,VALID,0,VALID,20.4829,VALID,151,VALID,0.0625,
2014-09-01, 03:10:05,VALID,916.132,VALID,0,VALID,97.1376,VALID,0,VALID,20.4829,VALID,147,VALID,0,
2014-09-01, 03:11:05,VALID,916.145,VALID,0,VALID,97.1376,VALID,0,VALID,20.4634,VALID,148,VALID,0,
2014-09-01, 03:12:05,VALID,916.136,VALID,0,VALID,97.1528,VALID,0,VALID,20.4829,VALID,145,VALID,0,
2014-09-01, 03:13:05,VALID,916.118,VALID,0,VALID,97.1299,VALID,0,VALID,20.4845,VALID,135,VALID,0.451562,
2014-09-01, 03:14:05,VALID,916.117,VALID,0,VALID,97.1452,VALID,0,VALID,20.4829,VALID,122,VALID,0.328125,
2014-09-01, 03:15:05,VALID,916.132,VALID,0,VALID,97.1681,VALID,0,VALID,20.4829,VALID,134,VALID,0,
2014-09-01, 03:16:05,VALID,916.137,VALID,0,VALID,97.1528,VALID,0,VALID,20.4829,VALID,138,VALID,0.35,
2014-09-01, 03:17:05,VALID,916.157,VALID,0,VALID,97.1452,VALID,0,VALID,20.504,VALID,144,VALID,0.000390625,
2014-09-01, 03:18:05,VALID,916.159,VALID,0,VALID,97.1528,VALID,0,VALID,20.4829,VALID,136,VALID,0.230859,
2014-09-01, 03:19:05,VALID,916.2,VALID,0,VALID,97.1452,VALID,0,VALID,20.4829,VALID,117,VALID,0,
2014-09-01, 03:20:05,VALID,916.248,VALID,0,VALID,97.1681,VALID,0,VALID,20.4618,VALID,139,VALID,0.248828,
2014-09-01, 03:21:05,VALID,916.252,VALID,0,VALID,97.1604,VALID,0,VALID,20.4829,VALID,149,VALID,0.776172,
2014-09-01, 03:22:05,VALID,916.23,VALID,0,VALID,97.1681,VALID,0,VALID,20.4829,VALID,143,VALID,0,
2014-09-01, 03:23:05,VALID,916.208,VALID,0,VALID,97.1528,VALID,0,VALID,20.504,VALID,138,VALID,0.267969,
2014-09-01, 03:24:05,VALID,916.205,VALID,0,VALID,97.1681,VALID,0,VALID,20.504,VALID,129,VALID,0,
2014-09-01, 03:25:05,VALID,916.228,VALID,0,VALID,97.1452,VALID,0,VALID,20.5024,VALID,137,VALID,0,
2014-09-01, 03:26:05,VALID,916.229,VALID,0,VALID,97.1681,VALID,0,VALID,20.5235,VALID,136,VALID,0,
2014-09-01, 03:27:05,VALID,916.182,VALID,0,VALID,97.1528,VALID,0,VALID,20.5024,VALID,142,VALID,0,
2014-09-01, 03:28:05,VALID,916.214,VALID,0,VALID,97.1528,VALID,0,VALID,20.5024,VALID,125,VALID,0,
2014-09-01, 03:29:05,VALID,916.176,VALID,0,VALID,97.1681,VALID,0,VALID,20.5024,VALID,124,VALID,0,
2014-09-01, 03:30:05,VALID,916.179,VALID,0,VALID,97.1604,VALID,0,VALID,20.504,VALID,118,VALID,0,
2014-09-01, 03:31:05,VALID,916.19,VALID,0,VALID,97.1909,VALID,0,VALID,20.5024,VALID,126,VALID,0,
2014-09-01, 03:32:05,VALID,916.155,VALID,0,VALID,97.1604,VALID,0,VALID,20.5235,VALID,136,VALID,0,
2014-09-01, 03:33:05,VALID,916.15,VALID,0,VALID,97.1757,VALID,0,VALID,20.4829,VALID,146,VALID,0.235156,
2014-09-01, 03:34:05,VALID,916.125,VALID,0,VALID,97.1681,VALID,0,VALID,20.5024,VALID,139,VALID,0.469141,
2014-09-01, 03:35:05,VALID,916.16,VALID,0,VALID,97.1833,VALID,0,VALID,20.4829,VALID,128,VALID,0.00195313,
2014-09-01, 03:36:05,VALID,916.13,VALID,0,VALID,97.1681,VALID,0,VALID,20.5235,VALID,137,VALID,0.775391,
2014-09-01, 03:37:05,VALID,916.093,VALID,0,VALID,97.1757,VALID,0,VALID,20.4829,VALID,150,VALID,0.0183594,
2014-09-01, 03:38:05,VALID,916.064,VALID,0,VALID,97.1757,VALID,0,VALID,20.5235,VALID,147,VALID,0.250781,
2014-09-01, 03:39:05,VALID,916.068,VALID,0,VALID,97.1604,VALID,0,VALID,20.5024,VALID,152,VALID,0,
2014-09-01, 03:40:05,VALID,916.05,VALID,0,VALID,97.1681,VALID,0,VALID,20.5235,VALID,153,VALID,0,
2014-09-01, 03:41:05,VALID,916.073,VALID,0,VALID,97.1909,VALID,0,VALID,20.5024,VALID,156,VALID,0.113672,
2014-09-01, 03:42:05,VALID,916.071,VALID,0,VALID,97.1757,VALID,0,VALID,20.5024,VALID,156,VALID,0,
2014-09-01, 03:43:05,VALID,916.035,VALID,0,VALID,97.1681,VALID,0,VALID,20.5219,VALID,156,VALID,0,
2014-09-01, 03:44:05,VALID,916.04,VALID,0,VALID,97.1528,VALID,0,VALID,20.5219,VALID,165,VALID,0.671094,
2014-09-01, 03:45:05,VALID,915.993,VALID,0,VALID,97.1528,VALID,0,VALID,20.5219,VALID,171,VALID,0.909375,
2014-09-01, 03:46:05,VALID,915.984,VALID,0,VALID,97.1604,VALID,0,VALID,20.5219,VALID,162,VALID,0.325781,
2014-09-01, 03:47:05,VALID,915.966,VALID,0,VALID,97.1528,VALID,0,VALID,20.5024,VALID,141,VALID,0.0589844,
2014-09-01, 03:48:05,VALID,915.953,VALID,0,VALID,97.1299,VALID,0,VALID,20.5235,VALID,144,VALID,0.685547,
2014-09-01, 03:49:05,VALID,915.943,VALID,0,VALID,97.1376,VALID,0,VALID,20.5024,VALID,147,VALID,0.930078,
2014-09-01, 03:50:05,VALID,915.934,VALID,0,VALID,97.1452,VALID,0,VALID,20.504,VALID,141,VALID,0.566016,
2014-09-01, 03:51:05,VALID,915.93,VALID,0,VALID,97.1452,VALID,0,VALID,20.5024,VALID,151,VALID,0.255469,
2014-09-01, 03:52:05,VALID,915.92,VALID,0,VALID,97.1376,VALID,0,VALID,20.4829,VALID,149,VALID,0.340234,
2014-09-01, 03:53:05,VALID,915.931,VALID,0,VALID,97.1147,VALID,0,VALID,20.5024,VALID,148,VALID,0.214844,
2014-09-01, 03:54:05,VALID,915.879,VALID,0,VALID,97.1147,VALID,0,VALID,20.4829,VALID,148,VALID,0.0289063,
2014-09-01, 03:55:05,VALID,915.894,VALID,0,VALID,97.1071,VALID,0,VALID,20.4829,VALID,147,VALID,0.269531,
2014-09-01, 03:56:05,VALID,915.85,VALID,0,VALID,97.0918,VALID,0,VALID,20.4634,VALID,132,VALID,0.629297,
2014-09-01, 03:57:05,VALID,915.851,VALID,0,VALID,97.069,VALID,0,VALID,20.4634,VALID,147,VALID,0.640234,